AUA21 LOWW-VRMM

Flight info

Callsign AUA21
Flight time N/A
Altitude 33000
Route ARSIN DCT NALOX DCT BABIT DCT IBISI DCT RUGAS DCT KOROS DCT PAXIS Y707 OBRAN L321 REXUM M872 SEMRU/N0481F350 M872 PMA Y214 RAPMA DCT DEGNO DCT ULONO DCT GOBRO L425 ITUVO/N0481F370 L425 ASPUX T208 BOLUR L894 ELBET ELBET1A
Aircraft B763/H-SDE3FGHIM3RWXY/LB1

Departure

Time 2026-05-06 21:49
Airport Vienna International Airport (LOWW)

Arrival

Time N/A
Airport Velana International Airport (VRMM)
Time Latitude Longitude Altitude Speed Heading
2026-05-06 21:16 48.11739 16.56701 611 ft 0 kts 27°
2026-05-06 21:37 48.11725 16.56691 611 ft 2 kts 26°
2026-05-06 21:37 48.11711 16.56681 611 ft 2 kts 30°
2026-05-06 21:38 48.11700 16.56668 611 ft 2 kts 49°
2026-05-06 21:38 48.11691 16.56650 611 ft 2 kts 64°
2026-05-06 21:38 48.11686 16.56629 611 ft 2 kts 81°
2026-05-06 21:38 48.11685 16.56607 611 ft 2 kts 96°
2026-05-06 21:39 48.11688 16.56586 611 ft 2 kts 112°
2026-05-06 21:39 48.11691 16.56578 611 ft 0 kts 117°
2026-05-06 21:43 48.11691 16.56579 611 ft 1 kts 117°
2026-05-06 21:43 48.11675 16.56624 610 ft 7 kts 116°
2026-05-06 21:43 48.11648 16.56706 611 ft 10 kts 117°
2026-05-06 21:43 48.11613 16.56813 611 ft 12 kts 116°
2026-05-06 21:44 48.11572 16.56937 611 ft 10 kts 116°
2026-05-06 21:44 48.11552 16.57000 611 ft 12 kts 116°
2026-05-06 21:44 48.11510 16.57129 611 ft 15 kts 117°
2026-05-06 21:44 48.11460 16.57284 611 ft 17 kts 115°
2026-05-06 21:45 48.11452 16.57429 611 ft 14 kts 44°
2026-05-06 21:45 48.11549 16.57511 611 ft 17 kts 29°
2026-05-06 21:45 48.11674 16.57527 611 ft 20 kts 343°
2026-05-06 21:45 48.11812 16.57468 610 ft 20 kts 345°
2026-05-06 21:46 48.11941 16.57412 611 ft 16 kts 345°
2026-05-06 21:46 48.12009 16.57474 611 ft 11 kts 87°
2026-05-06 21:46 48.11999 16.57575 610 ft 8 kts 106°
2026-05-06 21:46 48.11983 16.57661 611 ft 8 kts 105°
2026-05-06 21:47 48.11966 16.57756 611 ft 10 kts 105°
2026-05-06 21:47 48.11920 16.57841 610 ft 12 kts 155°
2026-05-06 21:47 48.11830 16.57878 611 ft 16 kts 165°
2026-05-06 21:47 48.11575 16.57987 611 ft 61 kts 165°
2026-05-06 21:48 48.10998 16.58227 611 ft 110 kts 165°
2026-05-06 21:48 48.10097 16.58610 615 ft 157 kts 165°
2026-05-06 21:48 48.08974 16.59097 833 ft 182 kts 165°
2026-05-06 21:48 48.07669 16.59655 1181 ft 206 kts 166°
2026-05-06 21:49 48.06278 16.60248 1323 ft 206 kts 167°
2026-05-06 21:49 48.04934 16.60818 1267 ft 195 kts 167°
2026-05-06 21:49 48.03601 16.61378 1544 ft 206 kts 168°
2026-05-06 21:49 48.02136 16.61988 1717 ft 228 kts 168°
2026-05-06 21:50 48.00538 16.62656 1941 ft 249 kts 168°
2026-05-06 21:50 47.98856 16.63287 2627 ft 247 kts 179°
2026-05-06 21:50 47.97166 16.63289 3250 ft 246 kts 188°
2026-05-06 21:50 47.95442 16.63198 3912 ft 250 kts 187°
2026-05-06 21:51 47.93691 16.63104 4570 ft 252 kts 187°
2026-05-06 21:51 47.91950 16.63003 5120 ft 258 kts 187°
2026-05-06 21:51 47.90129 16.62894 5720 ft 261 kts 187°
2026-05-06 21:51 47.88308 16.62782 6262 ft 266 kts 187°
2026-05-06 21:52 47.86486 16.62671 6887 ft 268 kts 187°
2026-05-06 21:52 47.84615 16.62556 7537 ft 269 kts 186°
2026-05-06 21:52 47.82731 16.62439 8161 ft 271 kts 186°
2026-05-06 21:52 47.80854 16.62324 8794 ft 272 kts 186°
2026-05-06 21:53 47.78943 16.62204 9360 ft 276 kts 186°
2026-05-06 21:53 47.77030 16.62089 10001 ft 277 kts 184°
2026-05-06 21:53 47.75116 16.62526 10339 ft 296 kts 163°
2026-05-06 21:53 47.73161 16.63839 10399 ft 321 kts 159°
2026-05-06 21:54 47.71061 16.65293 10444 ft 345 kts 159°
2026-05-06 21:54 47.68816 16.66863 10507 ft 368 kts 159°
2026-05-06 21:54 47.66489 16.68496 11075 ft 375 kts 159°
2026-05-06 21:54 47.64114 16.70166 11734 ft 379 kts 159°
2026-05-06 21:55 47.61723 16.71845 12439 ft 381 kts 158°
2026-05-06 21:55 47.59345 16.73512 13091 ft 383 kts 159°
2026-05-06 21:55 47.56885 16.75011 13635 ft 384 kts 168°
2026-05-06 21:55 47.54249 16.75596 14221 ft 381 kts 181°
2026-05-06 21:56 47.51622 16.75798 14788 ft 384 kts 178°
2026-05-06 21:56 47.48954 16.76087 15367 ft 386 kts 179°
2026-05-06 21:56 47.46250 16.76355 15879 ft 390 kts 179°
2026-05-06 21:56 47.43549 16.76618 16425 ft 393 kts 179°
2026-05-06 21:57 47.40815 16.76885 16938 ft 396 kts 179°
2026-05-06 21:57 47.38053 16.77150 17507 ft 399 kts 179°
2026-05-06 21:57 47.35306 16.77414 18045 ft 402 kts 179°
2026-05-06 21:57 47.32511 16.77683 18623 ft 404 kts 179°
2026-05-06 21:58 47.29684 16.77953 19074 ft 409 kts 179°
2026-05-06 21:58 47.26842 16.78225 19683 ft 410 kts 179°
2026-05-06 21:58 47.23980 16.78497 20135 ft 414 kts 179°
2026-05-06 21:58 47.21109 16.78771 20641 ft 416 kts 179°
2026-05-06 21:59 47.18232 16.79044 21048 ft 421 kts 179°
2026-05-06 21:59 47.15311 16.79322 21480 ft 424 kts 179°
2026-05-06 21:59 47.12354 16.79602 21952 ft 426 kts 179°
2026-05-06 21:59 47.09401 16.79882 22342 ft 429 kts 179°
2026-05-06 22:00 47.06422 16.80165 22799 ft 430 kts 179°
2026-05-06 22:00 47.03415 16.80449 23194 ft 433 kts 179°
2026-05-06 22:00 47.00431 16.80730 23533 ft 436 kts 179°
2026-05-06 22:00 46.97377 16.81019 23941 ft 438 kts 179°
2026-05-06 22:01 46.94346 16.81428 24260 ft 444 kts 174°
2026-05-06 22:01 46.91331 16.82542 24656 ft 451 kts 164°
2026-05-06 22:01 46.88451 16.84404 25025 ft 458 kts 155°
2026-05-06 22:01 46.85763 16.86993 25412 ft 465 kts 145°
2026-05-06 22:02 46.83362 16.90229 25716 ft 474 kts 136°
2026-05-06 22:02 46.81330 16.94020 26082 ft 480 kts 126°
2026-05-06 22:02 46.79646 16.98295 26410 ft 485 kts 122°
2026-05-06 22:02 46.77965 17.02536 26700 ft 486 kts 124°
2026-05-06 22:03 46.76221 17.06762 27023 ft 488 kts 124°
2026-05-06 22:03 46.74450 17.10951 27292 ft 490 kts 125°
2026-05-06 22:03 46.72642 17.15181 27606 ft 491 kts 125°
2026-05-06 22:03 46.70839 17.19368 27839 ft 494 kts 125°
2026-05-06 22:04 46.69008 17.23601 28141 ft 495 kts 125°
2026-05-06 22:04 46.67164 17.27847 28342 ft 497 kts 125°
2026-05-06 22:04 46.65339 17.32042 28609 ft 498 kts 125°
2026-05-06 22:04 46.63469 17.36331 28924 ft 498 kts 125°
2026-05-06 22:05 46.61637 17.40526 29231 ft 497 kts 125°
2026-05-06 22:05 46.59778 17.44776 29548 ft 496 kts 125°
2026-05-06 22:05 46.57927 17.49000 29860 ft 496 kts 125°
2026-05-06 22:05 46.56074 17.53219 30059 ft 497 kts 125°
2026-05-06 22:06 46.54245 17.57382 30421 ft 495 kts 125°
2026-05-06 22:06 46.52393 17.61586 30674 ft 495 kts 125°
2026-05-06 22:06 46.50546 17.65776 30854 ft 496 kts 126°
2026-05-06 22:06 46.48688 17.69984 31147 ft 495 kts 126°
2026-05-06 22:07 46.46844 17.74152 31337 ft 495 kts 126°
2026-05-06 22:07 46.44966 17.78393 31485 ft 497 kts 126°
2026-05-06 22:07 46.43099 17.82601 31738 ft 496 kts 126°
2026-05-06 22:07 46.41251 17.86761 31911 ft 497 kts 126°
2026-05-06 22:08 46.39381 17.90964 32125 ft 497 kts 126°
2026-05-06 22:08 46.37498 17.95188 32342 ft 496 kts 126°
2026-05-06 22:08 46.35630 17.99374 32523 ft 496 kts 126°
2026-05-06 22:08 46.33764 18.03549 32677 ft 497 kts 126°
2026-05-06 22:09 46.31884 18.07750 32893 ft 495 kts 126°
2026-05-06 22:09 46.30018 18.11912 32917 ft 494 kts 126°
2026-05-06 22:09 46.26302 18.20180 32916 ft 495 kts 126°
2026-05-06 22:10 46.22535 18.28540 32920 ft 497 kts 126°
2026-05-06 22:10 46.18786 18.36832 32918 ft 496 kts 126°
2026-05-06 22:11 46.15012 18.45158 32919 ft 498 kts 126°
2026-05-06 22:11 46.11225 18.53486 32918 ft 497 kts 126°
2026-05-06 22:12 46.07422 18.61825 32924 ft 498 kts 126°
2026-05-06 22:12 46.03627 18.70120 32916 ft 499 kts 127°
2026-05-06 22:13 45.99799 18.78466 32920 ft 499 kts 127°
2026-05-06 22:13 45.95998 18.86723 32922 ft 497 kts 127°
2026-05-06 22:14 45.91424 18.93993 32939 ft 490 kts 146°
2026-05-06 22:14 45.85961 18.99787 32929 ft 490 kts 148°
2026-05-06 22:15 45.80402 19.05376 32935 ft 488 kts 149°
2026-05-06 22:15 45.74798 19.10906 32931 ft 487 kts 149°
2026-05-06 22:16 45.69225 19.16363 32937 ft 487 kts 149°
2026-05-06 22:16 45.63628 19.21823 32941 ft 489 kts 150°
2026-05-06 22:17 45.58030 19.27268 32939 ft 491 kts 150°
2026-05-06 22:17 45.52390 19.32738 32937 ft 490 kts 150°
2026-05-06 22:18 45.46772 19.38177 32944 ft 489 kts 150°
2026-05-06 22:18 45.41111 19.43640 32941 ft 491 kts 150°
2026-05-06 22:19 45.35463 19.49079 32943 ft 492 kts 150°
2026-05-06 22:19 45.29809 19.54510 32938 ft 492 kts 150°
2026-05-06 22:20 45.24152 19.59931 32943 ft 493 kts 149°
2026-05-06 22:20 45.18470 19.65363 32949 ft 494 kts 150°
2026-05-06 22:21 45.12799 19.70772 32944 ft 491 kts 150°
2026-05-06 22:21 45.07127 19.76166 32947 ft 491 kts 150°
2026-05-06 22:22 45.01457 19.81545 32949 ft 492 kts 150°
2026-05-06 22:22 44.95768 19.86932 32946 ft 492 kts 150°
2026-05-06 22:23 44.90075 19.92308 32952 ft 494 kts 150°
2026-05-06 22:23 44.84380 19.97672 32954 ft 495 kts 150°
2026-05-06 22:24 44.78634 20.03074 32954 ft 494 kts 150°
2026-05-06 22:24 44.72926 20.08425 32952 ft 494 kts 150°
2026-05-06 22:25 44.67197 20.13782 32953 ft 496 kts 150°
2026-05-06 22:25 44.61460 20.19136 32958 ft 495 kts 150°
2026-05-06 22:26 44.55710 20.24486 32957 ft 495 kts 150°
2026-05-06 22:26 44.49981 20.29806 32957 ft 495 kts 150°
2026-05-06 22:27 44.44243 20.35121 32956 ft 497 kts 150°